Content
SEND FEEDBACK

Daily
Averages
Monthly
Summary
United States of America

PUT IN BAY, OHIO


Home > North America > United States > Ohio
Elevation: 561 feet     Latitude: 41 39N     Longitude: 082 48W

WEATHER
 
SELECT A DAY
Number of Records: 123,078;   Date Range: 12/10/00 - 9/18/14
 
SHARE

PRINT THIS DATA

[ ← Previous Day ]
WEATHER ALMANAC - FEBRUARY 21, 2014
[ Next Day → ]
[ °C ]   °F
Weather ElementAverageHighLow
Temperature36 °F47 °F (1:00 am)32.9 °F (5:00 pm)
Dewpoint28.6 °F42.4 °F (1:00 am)20.1 °F (9:00 pm)
Humidity73.8 %85 % (2:00 am)55 % (7:00 pm)
Barometer29.61 in29.81 in (11:00 pm)29.43 in (1:00 am)
Wind Speed19.9 mph24.2 mph (2:00 pm)
Wind Gust35.7 mph (6:00 pm)
Weather ElementAverage
Wind DirectionWSW (232.6 °)

Weather ElementTotal
Precipitation0.01 in
Heating Degree Days25.1 (Base 65)
Averaged from 27 records on February 21, 2014
WEATHER CONDITIONS BREAKOUT
WIND DIRECTION BREAKOUT
WEATHER BY HOUR - FEBRUARY 21, 2014
[ °C ]   °F
Local TimeTemperatureDewpointHumidityBarometerVisibilityWind DirectionWind SpeedGust SpeedPrecipitationEventsConditions
1:00 AM47.0 °F42.0 °F79 %29.43 inSSW (210°)17.3 mph
1:00 AM46.9 °F42.4 °F84 %29.43 inSSW (210°)17.3 mph25.3 mph
2:00 AM41.2 °F36.9 °F85 %29.47 inSW (230°)20.7 mph31.1 mph0.01 in
3:00 AM37.0 °F31.6 °F81 %29.49 inWSW (250°)21.9 mph28.8 mph
4:00 AM36.3 °F30.7 °F80 %29.51 inWSW (240°)19.6 mph25.3 mph
5:00 AM35.6 °F30.7 °F82 %29.54 inSW (230°)15.0 mph
6:00 AM35.6 °F30.2 °F81 %29.57 inSW (220°)15.0 mph23.0 mph
7:00 AM35.0 °F30.0 °F76 %29.56 inSW (230°)17.3 mph
7:00 AM35.4 °F30.2 °F81 %29.56 inSW (230°)17.3 mph24.2 mph
8:00 AM35.2 °F29.3 °F79 %29.56 inSW (230°)16.1 mph23.0 mph
9:00 AM35.4 °F29.5 °F79 %29.58 inSW (230°)16.1 mph25.3 mph
10:00 AM35.2 °F29.7 °F80 %29.57 inSW (220°)21.9 mph33.4 mph
11:00 AM36.0 °F28.6 °F75 %29.58 inSW (230°)21.9 mph29.9 mph
12:00 PM35.2 °F28.9 °F78 %29.60 inSW (230°)19.6 mph26.5 mph
1:00 PM35.0 °F28.0 °F66 %29.60 inSW (230°)20.7 mph
1:00 PM35.1 °F27.9 °F75 %29.60 inSW (230°)20.7 mph28.8 mph
2:00 PM34.9 °F27.3 °F74 %29.61 inSW (230°)24.2 mph34.5 mph
3:00 PM34.2 °F27.0 °F75 %29.63 inSW (230°)24.2 mph34.5 mph
4:00 PM34.5 °F25.0 °F68 %29.66 inWSW (240°)24.2 mph34.5 mph
5:00 PM32.9 °F26.2 °F76 %29.68 inWSW (240°)19.6 mph31.1 mph
6:00 PM34.3 °F23.2 °F64 %29.70 inWSW (250°)24.2 mph35.7 mph
7:00 PM34.0 °F24.0 °F55 %29.73 inWSW (240°)19.6 mph
7:00 PM34.0 °F23.7 °F66 %29.73 inWSW (240°)19.6 mph28.8 mph
8:00 PM33.8 °F22.3 °F63 %29.76 inWSW (240°)20.7 mph28.8 mph
9:00 PM33.8 °F20.1 °F57 %29.78 inWSW (250°)24.2 mph35.7 mph
10:00 PM34.0 °F22.6 °F63 %29.80 inWSW (240°)19.6 mph27.6 mph
11:00 PM34.2 °F25.3 °F70 %29.81 inSW (230°)19.6 mph28.8 mph
Hourly data recorded from CXHA, located miles away from Put In Bay, Ohio







STORIES FROM OUR PARTNERS